Погода в Нерчинске

Россия / Забайкальский край     51°57′34″N   116°35′07″E
темп.,
°C
ветер,
м/с
пор.,
м/с
влажн.,
%
обл.,
%
осадки,
мм/ч
давл.,
гПа
погр.,
м
10 мая, пн
пн1000:00+7зюз235898 0.0 100977
03:00+5ю1173100 0.0 100916
06:00+4ю1172100 0.0 101010
09:00+8в1254100 0.0 1009532
12:00+12всв3341100 0.0 10081647
15:00+13ссв3332100 0.0 10062069
18:00+12юз2338100 0.0 10061788
21:00+10юз2353100 0.0 100676
11 мая, вт
вт1100:00+8юз236588 0.0 100790
03:00+7сз117188 0.0 100710
06:00+5св117677 0.0 100722
09:00+9св4661100 0.0 1006857
12:00+13ссв573594 0.0 10032433
15:00+16ссв5824100 0.0 10013004
18:00+15св5828100 0.0 10002396
21:00+10юз1145100 0.0 100211
12 мая, ср
ср1200:00+8ссз22476 0.0 100315
03:00+6зсз22520 0.0 100414
06:00+4з23660 0.0 100439
09:00+10сз610430 0.0 10041044
12:00+14сз69305 0.0 10022453
15:00+17сз61019100 0.0 10003647
18:00+16зсз8102738 0.0 10002612
21:00+12зсз410303 0.0 1002179
13 мая, чт
чт1300:00+9зюз234271 0.0 100439
03:00+6зюз510650 0.0 1005351
06:00+4зюз51057100 0.0 1007353
09:00+7з6744100 0.0 1007805
12:00+11з562954 0.0 10051839
15:00+14з4522100 0.0 10042380
18:00+14зюз342177 0.0 10032682
21:00+10ссв373583 0.0 1004204
14 мая, пт
пт1400:00+8св3544100 0.0 1005171
03:00+7с2248100 0.0 100451
06:00+6ссз2453100 0.0 1003152
09:00+8с4557100 0.0 1002925
12:00+4с5893100 1.7 1004625
15:00+5с5985100 5.1 1004831
18:00+11с383899 0.2 10012330
21:00+8сз4114522 0.2 1002192